| time (UTC) | temp F | wind direction | speed knots | gust knots | rain 1hr in | rain 24hr in | rain mn in | humidity % | barometer mb |
| 20260508231059 | 60 | 194 | 3.5 | 11.3 | 0.00 | 0.00 | 0.00 | 63 | 1004.7 |
| 20260508230559 | 61 | 140 | 4.3 | 13.0 | 0.00 | 0.00 | 0.00 | 62 | 1004.7 |
| 20260508230107 | 61 | 192 | 3.5 | 13.9 | 0.00 | 0.00 | 0.00 | 61 | 1004.7 |
| 20260508225558 | 61 | 171 | 5.2 | 13.9 | 0.00 | 0.00 | 0.00 | 60 | 1004.8 |
| 20260508225055 | 62 | 156 | 3.5 | 9.6 | 0.00 | 0.00 | 0.00 | 61 | 1004.7 |
| 20260508224558 | 62 | 221 | 4.3 | 9.6 | 0.00 | 0.00 | 0.00 | 58 | 1004.8 |
| 20260508224102 | 62 | 192 | 2.6 | 9.6 | 0.00 | 0.00 | 0.00 | 56 | 1004.6 |
| 20260508223558 | 62 | 195 | 2.6 | 9.6 | 0.00 | 0.00 | 0.00 | 52 | 1004.7 |
| 20260508223058 | 62 | 242 | 3.5 | 9.6 | 0.00 | 0.00 | 0.00 | 55 | 1004.7 |
| 20260508222554 | 62 | 204 | 3.5 | 9.6 | 0.00 | 0.00 | 0.00 | 62 | 1004.7 |
| 20260508222057 | 61 | 194 | 3.5 | 10.4 | 0.00 | 0.00 | 0.00 | 61 | 1004.7 |
| 20260508221608 | 61 | 132 | 3.5 | 10.4 | 0.00 | 0.00 | 0.00 | 59 | 1004.9 |
| 20260508221055 | 61 | 160 | 4.3 | 8.7 | 0.00 | 0.00 | 0.00 | 57 | 1004.9 |
| 20260508220555 | 62 | 200 | 3.5 | 7.8 | 0.00 | 0.00 | 0.00 | 53 | 1004.9 |
| 20260508220100 | 62 | 207 | 3.5 | 7.8 | 0.00 | 0.00 | 0.00 | 55 | 1005.0 |
| 20260508215558 | 62 | 189 | 1.7 | 10.4 | 0.00 | 0.00 | 0.00 | 50 | 1005.1 |
| 20260508215058 | 62 | 186 | 3.5 | 10.4 | 0.00 | 0.00 | 0.00 | 49 | 1005.0 |
| 20260508214605 | 62 | 260 | 2.6 | 7.8 | 0.00 | 0.00 | 0.00 | 49 | 1004.9 |
| 20260508214057 | 62 | 166 | 2.6 | 9.6 | 0.00 | 0.00 | 0.00 | 49 | 1004.8 |
| 20260508213558 | 62 | 271 | 3.5 | 10.4 | 0.00 | 0.00 | 0.00 | 49 | 1004.9 |
| 20260508213058 | 62 | 24 | 2.6 | 10.4 | 0.00 | 0.00 | 0.00 | 47 | 1004.9 |
| 20260508212555 | 63 | 252 | 2.6 | 13.9 | 0.00 | 0.00 | 0.00 | 46 | 1005.0 |
| 20260508212055 | 63 | 180 | 4.3 | 13.9 | 0.00 | 0.00 | 0.00 | 52 | 1005.0 |
| 20260508211555 | 63 | 160 | 5.2 | 10.4 | 0.00 | 0.00 | 0.00 | 51 | 1004.9 |
| 20260508211058 | 62 | 180 | 3.5 | 9.6 | 0.00 | 0.00 | 0.00 | 51 | 1005.1 |
| 20260508210559 | 62 | 175 | 4.3 | 9.6 | 0.00 | 0.00 | 0.00 | 51 | 1005.1 |
| 20260508210107 | 62 | 236 | 1.7 | 7.8 | 0.00 | 0.00 | 0.00 | 49 | 1005.2 |
| 20260508205557 | 61 | 202 | 3.5 | 7.8 | 0.00 | 0.00 | 0.00 | 49 | 1005.2 |
| 20260508205058 | 61 | 93 | 2.6 | 6.1 | 0.00 | 0.00 | 0.00 | 50 | 1005.1 |
| 20260508204558 | 61 | 176 | 1.7 | 7.0 | 0.00 | 0.00 | 0.00 | 53 | 1005.2 |
| 20260508204057 | 61 | 217 | 2.6 | 7.0 | 0.00 | 0.00 | 0.00 | 53 | 1005.2 |
| 20260508203559 | 61 | 92 | 2.6 | 7.0 | 0.00 | 0.00 | 0.00 | 52 | 1005.3 |
| 20260508203103 | 62 | 238 | 3.5 | 7.8 | 0.00 | 0.00 | 0.00 | 51 | 1005.3 |
| 20260508202559 | 62 | 178 | 2.6 | 8.7 | 0.00 | 0.00 | 0.00 | 50 | 1005.3 |
| 20260508202055 | 63 | 181 | 2.6 | 9.6 | 0.00 | 0.00 | 0.00 | 47 | 1005.3 |
| 20260508201556 | 63 | 212 | 4.3 | 10.4 | 0.00 | 0.00 | 0.00 | 47 | 1005.4 |
| 20260508201056 | 63 | 292 | 4.3 | 10.4 | 0.00 | 0.00 | 0.00 | 48 | 1005.5 |
| 20260508200553 | 63 | 211 | 3.5 | 10.4 | 0.00 | 0.00 | 0.00 | 45 | 1005.6 |
| 20260508200100 | 63 | 360 | 3.5 | 7.8 | 0.00 | 0.00 | 0.00 | 47 | 1005.6 |
| 20260508195555 | 62 | 144 | 1.7 | 9.6 | 0.00 | 0.00 | 0.00 | 47 | 1005.7 |
| 20260508195055 | 63 | 251 | 1.7 | 9.6 | 0.00 | 0.00 | 0.00 | 44 | 1005.8 |
| 20260508194559 | 63 | 331 | 2.6 | 7.8 | 0.00 | 0.00 | 0.00 | 45 | 1005.8 |
| 20260508194052 | 64 | 275 | 2.6 | 9.6 | 0.00 | 0.00 | 0.00 | 43 | 1006.1 |
| 20260508193555 | 64 | 333 | 3.5 | 9.6 | 0.00 | 0.00 | 0.00 | 44 | 1006.2 |
| 20260508193113 | 63 | 98 | 0.9 | 5.2 | 0.00 | 0.00 | 0.00 | 49 | 1006.1 |
| 20260508192559 | 61 | 259 | 0.9 | 8.7 | 0.00 | 0.00 | 0.00 | 51 | 1006.4 |
| 20260508192055 | 60 | 143 | 1.7 | 9.6 | 0.00 | 0.00 | 0.00 | 53 | 1006.6 |
| 20260508191613 | 60 | 160 | 4.3 | 9.6 | 0.00 | 0.00 | 0.00 | 51 | 1006.7 |
| 20260508191054 | 61 | 150 | 3.5 | 8.7 | 0.00 | 0.00 | 0.00 | 52 | 1006.7 |
| 20260508190555 | 62 | 317 | 1.7 | 10.4 | 0.00 | 0.00 | 0.00 | 51 | 1006.7 |
| 20260508190058 | 61 | 147 | 2.6 | 12.2 | 0.00 | 0.00 | 0.00 | 52 | 1006.9 |
| 20260508185556 | 61 | 191 | 4.3 | 12.2 | 0.00 | 0.00 | 0.00 | 49 | 1006.9 |
| 20260508185055 | 61 | 207 | 2.6 | 7.8 | 0.00 | 0.00 | 0.00 | 53 | 1007.1 |
| 20260508184557 | 60 | 152 | 1.7 | 7.8 | 0.00 | 0.00 | 0.00 | 57 | 1007.0 |
| 20260508184059 | 60 | 175 | 2.6 | 13.9 | 0.00 | 0.00 | 0.00 | 56 | 1007.1 |
| 20260508183555 | 60 | 140 | 4.3 | 13.9 | 0.00 | 0.00 | 0.00 | 54 | 1007.1 |
| 20260508183057 | 62 | 191 | 4.3 | 11.3 | 0.00 | 0.00 | 0.00 | 49 | 1007.2 |
| 20260508182556 | 63 | 190 | 4.3 | 9.6 | 0.00 | 0.00 | 0.00 | 54 | 1007.1 |
| 20260508182055 | 61 | 180 | 1.7 | 11.3 | 0.00 | 0.00 | 0.00 | 49 | 1007.2 |
| 20260508181605 | 61 | 169 | 2.6 | 11.3 | 0.00 | 0.00 | 0.00 | 49 | 1007.2 |
| 20260508181057 | 61 | 234 | 2.6 | 9.6 | 0.00 | 0.00 | 0.00 | 47 | 1007.4 |
| 20260508180553 | 62 | 210 | 3.5 | 12.2 | 0.00 | 0.00 | 0.00 | 49 | 1007.4 |
| 20260508180057 | 62 | 277 | 5.2 | 12.2 | 0.00 | 0.00 | 0.00 | 51 | 1007.5 |
| 20260508175554 | 61 | 123 | 3.5 | 9.6 | 0.00 | 0.00 | 0.00 | 48 | 1007.4 |
| 20260508175054 | 61 | 173 | 2.6 | 9.6 | 0.00 | 0.00 | 0.00 | 49 | 1007.5 |
| 20260508174557 | 60 | 127 | 1.7 | 9.6 | 0.00 | 0.00 | 0.00 | 49 | 1007.5 |
| 20260508174054 | 60 | 183 | 0.9 | 6.1 | 0.00 | 0.00 | 0.00 | 50 | 1007.7 |
| 20260508173555 | 59 | 259 | 1.7 | 9.6 | 0.00 | 0.00 | 0.00 | 47 | 1007.7 |
| 20260508173056 | 60 | 175 | 2.6 | 9.6 | 0.00 | 0.00 | 0.00 | 45 | 1007.8 |
| 20260508172553 | 60 | 188 | 2.6 | 7.8 | 0.00 | 0.00 | 0.00 | 47 | 1008.0 |
| 20260508172056 | 60 | 288 | 2.6 | 8.7 | 0.00 | 0.00 | 0.00 | 47 | 1008.2 |
| 20260508171606 | 61 | 181 | 3.5 | 8.7 | 0.00 | 0.00 | 0.00 | 48 | 1008.2 |
| 20260508171053 | 61 | 344 | 1.7 | 10.4 | 0.00 | 0.00 | 0.00 | 51 | 1008.3 |
| 20260508170553 | 59 | 103 | 6.1 | 10.4 | 0.00 | 0.00 | 0.00 | 51 | 1008.3 |
| 20260508170100 | 59 | 198 | 3.5 | 8.7 | 0.00 | 0.00 | 0.00 | 56 | 1008.4 |
| 20260508165554 | 60 | 270 | 1.7 | 5.2 | 0.00 | 0.00 | 0.00 | 51 | 1008.4 |
| 20260508165055 | 60 | 352 | 1.7 | 9.6 | 0.00 | 0.00 | 0.00 | 51 | 1008.6 |
| 20260508164603 | 59 | 59 | 2.6 | 9.6 | 0.00 | 0.00 | 0.00 | 56 | 1008.6 |
| 20260508164057 | 59 | 163 | 2.6 | 10.4 | 0.00 | 0.00 | 0.00 | 53 | 1008.7 |
| 20260508163553 | 58 | 148 | 2.6 | 10.4 | 0.00 | 0.00 | 0.00 | 59 | 1008.7 |
| 20260508163059 | 57 | 202 | 2.6 | 10.4 | 0.00 | 0.00 | 0.00 | 59 | 1008.8 |
| 20260508162555 | 58 | 184 | 3.5 | 10.4 | 0.00 | 0.00 | 0.00 | 61 | 1008.9 |
| 20260508162059 | 58 | 215 | 3.5 | 9.6 | 0.00 | 0.00 | 0.00 | 54 | 1009.0 |
| 20260508161559 | 58 | 154 | 3.5 | 9.6 | 0.00 | 0.00 | 0.00 | 58 | 1008.9 |
| 20260508161055 | 58 | 207 | 1.7 | 8.7 | 0.00 | 0.00 | 0.00 | 58 | 1009.1 |
| 20260508160555 | 57 | 167 | 3.5 | 9.6 | 0.00 | 0.00 | 0.00 | 55 | 1009.1 |
| 20260508160100 | 57 | 214 | 3.5 | 9.6 | 0.00 | 0.00 | 0.00 | 60 | 1009.1 |
| 20260508155553 | 57 | 187 | 2.6 | 7.8 | 0.00 | 0.00 | 0.00 | 59 | 1009.1 |
| 20260508155053 | 57 | 176 | 3.5 | 7.8 | 0.00 | 0.00 | 0.00 | 57 | 1009.1 |
| 20260508154601 | 57 | 124 | 1.7 | 5.2 | 0.00 | 0.00 | 0.00 | 58 | 1009.1 |
| 20260508154054 | 56 | 79 | 1.7 | 6.1 | 0.00 | 0.00 | 0.00 | 59 | 1009.1 |
| 20260508153555 | 56 | 196 | 1.7 | 7.0 | 0.00 | 0.00 | 0.00 | 59 | 1009.2 |
| 20260508153108 | 56 | 157 | 1.7 | 7.0 | 0.00 | 0.00 | 0.00 | 59 | 1009.2 |
| 20260508152557 | 57 | 0 | 1.7 | 3.5 | 0.00 | 0.00 | 0.00 | 56 | 1009.3 |
| 20260508152055 | 56 | 341 | 1.7 | 6.1 | 0.00 | 0.00 | 0.00 | 57 | 1009.3 |
| 20260508151603 | 55 | 5 | 0.0 | 6.1 | 0.00 | 0.00 | 0.00 | 60 | 1009.3 |
| 20260508151055 | 55 | 141 | 2.6 | 6.1 | 0.00 | 0.00 | 0.00 | 57 | 1009.4 |
| 20260508150553 | 56 | 0 | 1.7 | 5.2 | 0.00 | 0.00 | 0.00 | 55 | 1009.4 |
| 20260508150057 | 57 | 24 | 0.9 | 3.5 | 0.00 | 0.00 | 0.00 | 60 | 1009.4 |
| 20260508145555 | 54 | 0 | 0.0 | 5.2 | 0.00 | 0.00 | 0.00 | 58 | 1009.5 |
| 20260508145053 | 54 | 0 | 1.7 | 5.2 | 0.00 | 0.00 | 0.00 | 59 | 1009.6 |
| 20260508144559 | 55 | 285 | 1.7 | 5.2 | 0.00 | 0.00 | 0.00 | 57 | 1009.5 |
| 20260508144054 | 56 | 301 | 1.7 | 5.2 | 0.00 | 0.00 | 0.00 | 64 | 1009.4 |
| 20260508143555 | 55 | 340 | 0.9 | 4.3 | 0.00 | 0.00 | 0.00 | 66 | 1009.4 |
| 20260508143104 | 55 | 317 | 0.9 | 4.3 | 0.00 | 0.00 | 0.00 | 64 | 1009.5 |
| 20260508142555 | 54 | 336 | 0.0 | 4.3 | 0.00 | 0.00 | 0.00 | 68 | 1009.5 |
| 20260508142054 | 54 | 0 | 0.9 | 4.3 | 0.00 | 0.00 | 0.00 | 65 | 1009.7 |
| 20260508141600 | 54 | 5 | 0.9 | 4.3 | 0.00 | 0.00 | 0.00 | 68 | 1009.8 |
| 20260508141055 | 53 | 28 | 1.7 | 4.3 | 0.00 | 0.00 | 0.00 | 68 | 1009.7 |
| 20260508140555 | 52 | 0 | 0.9 | 5.2 | 0.00 | 0.00 | 0.00 | 69 | 1009.8 |
| 20260508135555 | 52 | 352 | 0.9 | 3.5 | 0.00 | 0.00 | 0.00 | 72 | 1009.9 |
| 20260508135053 | 52 | 279 | 1.7 | 3.5 | 0.00 | 0.00 | 0.00 | 73 | 1009.9 |
| 20260508134559 | 52 | 351 | 0.9 | 3.5 | 0.00 | 0.00 | 0.00 | 75 | 1009.9 |
| 20260508134054 | 52 | 287 | 0.9 | 4.3 | 0.00 | 0.00 | 0.00 | 75 | 1009.8 |
| 20260508133556 | 51 | 47 | 1.7 | 4.3 | 0.00 | 0.00 | 0.00 | 77 | 1009.7 |
| 20260508133113 | 50 | 306 | 0.9 | 5.2 | 0.00 | 0.00 | 0.00 | 77 | 1009.7 |
| 20260508132554 | 50 | 283 | 1.7 | 5.2 | 0.00 | 0.00 | 0.00 | 78 | 1009.8 |
| 20260508132054 | 50 | 261 | 1.7 | 6.1 | 0.00 | 0.00 | 0.00 | 76 | 1009.8 |
| 20260508131602 | 50 | 11 | 0.9 | 6.1 | 0.00 | 0.00 | 0.00 | 78 | 1009.8 |
| 20260508131054 | 50 | 262 | 0.9 | 4.3 | 0.00 | 0.00 | 0.00 | 79 | 1009.9 |
| 20260508130555 | 49 | 312 | 0.9 | 4.3 | 0.00 | 0.00 | 0.00 | 78 | 1010.0 |
| 20260508130111 | 49 | 28 | 1.7 | 4.3 | 0.00 | 0.00 | 0.00 | 81 | 1009.9 |
| 20260508125555 | 49 | 346 | 0.9 | 4.3 | 0.00 | 0.00 | 0.00 | 81 | 1009.9 |
| 20260508125054 | 49 | 0 | 0.0 | 4.3 | 0.00 | 0.00 | 0.00 | 81 | 1009.9 |
| 20260508124559 | 48 | 352 | 1.7 | 4.3 | 0.00 | 0.00 | 0.00 | 81 | 1009.9 |
| 20260508124055 | 48 | 352 | 0.9 | 2.6 | 0.00 | 0.00 | 0.00 | 82 | 1009.8 |
| 20260508123555 | 47 | 352 | 0.9 | 3.5 | 0.00 | 0.00 | 0.00 | 83 | 1009.9 |
| 20260508123109 | 46 | 333 | 0.9 | 3.5 | 0.00 | 0.00 | 0.00 | 84 | 1009.8 |
| 20260508122554 | 46 | 286 | 0.9 | 2.6 | 0.00 | 0.00 | 0.00 | 84 | 1009.7 |
| 20260508122057 | 45 | 0 | 0.0 | 0.9 | 0.00 | 0.00 | 0.00 | 84 | 1009.7 |
| 20260508121607 | 45 | 0 | 0.0 | 0.0 | 0.00 | 0.00 | 0.00 | 83 | 1009.6 |
| 20260508121053 | 45 | 0 | 0.0 | 0.0 | 0.00 | 0.00 | 0.00 | 85 | 1009.5 |
| 20260508120553 | 44 | 0 | 0.0 | 0.0 | 0.00 | 0.00 | 0.00 | 86 | 1009.6 |
| 20260508120059 | 44 | 0 | 0.0 | 0.9 | 0.00 | 0.00 | 0.00 | 86 | 1009.6 |
| 20260508115555 | 43 | 0 | 0.0 | 0.9 | 0.00 | 0.00 | 0.00 | 87 | 1009.6 |
| 20260508115054 | 43 | 0 | 0.0 | 0.0 | 0.00 | 0.00 | 0.00 | 88 | 1009.7 |
| 20260508114557 | 43 | 0 | 0.0 | 0.0 | 0.00 | 0.00 | 0.00 | 89 | 1009.6 |
| 20260508114055 | 42 | 0 | 0.0 | 0.0 | 0.00 | 0.00 | 0.00 | 89 | 1009.5 |
| 20260508113556 | 42 | 0 | 0.0 | 0.0 | 0.00 | 0.00 | 0.00 | 90 | 1009.5 |
| 20260508113102 | 41 | 0 | 0.0 | 0.0 | 0.00 | 0.00 | 0.00 | 90 | 1009.5 |
| 20260508112554 | 41 | 0 | 0.0 | 0.0 | 0.00 | 0.00 | 0.00 | 90 | 1009.4 |
| 20260508112055 | 40 | 0 | 0.0 | 0.0 | 0.00 | 0.00 | 0.00 | 89 | 1009.5 |
| 20260508111556 | 40 | 0 | 0.0 | 0.0 | 0.00 | 0.00 | 0.00 | 90 | 1009.3 |
| 20260508111100 | 40 | 0 | 0.0 | 0.0 | 0.00 | 0.00 | 0.00 | 89 | 1009.3 |
| 20260508110555 | 40 | 0 | 0.0 | 0.0 | 0.00 | 0.00 | 0.00 | 89 | 1009.1 |
| 20260508110057 | 40 | 0 | 0.0 | 0.0 | 0.00 | 0.00 | 0.00 | 89 | 1009.1 |
| 20260508105554 | 40 | 0 | 0.0 | 0.0 | 0.00 | 0.00 | 0.00 | 89 | 1009.0 |
| 20260508105055 | 40 | 0 | 0.0 | 0.0 | 0.00 | 0.00 | 0.00 | 88 | 1008.8 |
| 20260508104620 | 40 | 0 | 0.0 | 0.0 | 0.00 | 0.00 | 0.00 | 88 | 1008.9 |
| 20260508104057 | 41 | 0 | 0.0 | 2.6 | 0.00 | 0.00 | 0.00 | 87 | 1008.9 |
| 20260508103555 | 41 | 0 | 0.0 | 2.6 | 0.00 | 0.00 | 0.00 | 88 | 1008.8 |
| 20260508103056 | 41 | 215 | 0.9 | 2.6 | 0.00 | 0.00 | 0.00 | 88 | 1008.8 |
| 20260508102555 | 41 | 0 | 0.0 | 2.6 | 0.00 | 0.00 | 0.00 | 88 | 1008.7 |
| 20260508102055 | 41 | 0 | 0.0 | 0.9 | 0.00 | 0.00 | 0.00 | 87 | 1008.6 |
| 20260508101557 | 41 | 0 | 0.0 | 0.9 | 0.00 | 0.00 | 0.00 | 87 | 1008.8 |
| 20260508101055 | 41 | 0 | 0.0 | 1.7 | 0.00 | 0.00 | 0.00 | 88 | 1008.7 |
| 20260508100554 | 41 | 139 | 0.0 | 2.6 | 0.00 | 0.00 | 0.00 | 87 | 1008.8 |
| 20260508100057 | 41 | 0 | 0.0 | 2.6 | 0.00 | 0.00 | 0.00 | 87 | 1008.8 |
| 20260508095555 | 41 | 175 | 0.0 | 2.6 | 0.00 | 0.00 | 0.00 | 87 | 1008.8 |
| 20260508095055 | 41 | 175 | 0.0 | 2.6 | 0.00 | 0.00 | 0.00 | 87 | 1008.8 |
| 20260508094555 | 41 | 186 | 0.0 | 3.5 | 0.00 | 0.00 | 0.00 | 88 | 1008.7 |
| 20260508094056 | 41 | 0 | 1.7 | 4.3 | 0.00 | 0.00 | 0.00 | 89 | 1008.9 |
| 20260508093558 | 41 | 167 | 1.7 | 4.3 | 0.00 | 0.00 | 0.00 | 89 | 1009.0 |
| 20260508093055 | 40 | 188 | 0.0 | 2.6 | 0.00 | 0.00 | 0.00 | 89 | 1009.0 |
| 20260508092557 | 40 | 0 | 0.0 | 0.0 | 0.00 | 0.00 | 0.00 | 89 | 1008.9 |
| 20260508092058 | 40 | 0 | 0.0 | 0.0 | 0.00 | 0.00 | 0.00 | 89 | 1008.8 |
| 20260508091614 | 40 | 0 | 0.0 | 0.0 | 0.00 | 0.00 | 0.00 | 89 | 1008.8 |
| 20260508091054 | 40 | 0 | 0.0 | 0.0 | 0.00 | 0.00 | 0.00 | 89 | 1008.8 |
| 20260508090557 | 40 | 0 | 0.0 | 0.0 | 0.00 | 0.00 | 0.00 | 88 | 1008.8 |
| 20260508090109 | 40 | 0 | 0.0 | 0.0 | 0.00 | 0.00 | 0.00 | 88 | 1008.8 |
| 20260508085556 | 40 | 0 | 0.0 | 0.0 | 0.00 | 0.00 | 0.00 | 88 | 1008.9 |
| 20260508085056 | 40 | 0 | 0.0 | 0.0 | 0.00 | 0.00 | 0.00 | 88 | 1008.8 |
| 20260508084557 | 40 | 0 | 0.0 | 0.0 | 0.00 | 0.00 | 0.00 | 88 | 1008.8 |
| 20260508084056 | 41 | 0 | 0.0 | 0.0 | 0.00 | 0.00 | 0.00 | 88 | 1008.9 |
| 20260508083554 | 41 | 0 | 0.0 | 0.0 | 0.00 | 0.00 | 0.00 | 88 | 1009.0 |
| 20260508083109 | 40 | 0 | 0.0 | 0.0 | 0.00 | 0.00 | 0.00 | 87 | 1009.0 |
| 20260508082556 | 41 | 0 | 0.0 | 0.0 | 0.00 | 0.00 | 0.00 | 87 | 1009.0 |
| 20260508082054 | 41 | 0 | 0.0 | 0.0 | 0.00 | 0.00 | 0.00 | 87 | 1009.0 |
| 20260508081601 | 41 | 0 | 0.0 | 0.0 | 0.00 | 0.00 | 0.00 | 87 | 1009.0 |
| 20260508081057 | 41 | 0 | 0.0 | 0.0 | 0.00 | 0.00 | 0.00 | 87 | 1008.9 |
| 20260508080557 | 41 | 0 | 0.0 | 0.0 | 0.00 | 0.00 | 0.00 | 87 | 1008.8 |
| 20260508080109 | 41 | 0 | 0.0 | 0.0 | 0.00 | 0.00 | 0.00 | 86 | 1008.9 |
| 20260508075555 | 41 | 0 | 0.0 | 0.0 | 0.00 | 0.00 | 0.00 | 86 | 1009.0 |
| 20260508075055 | 41 | 0 | 0.0 | 0.0 | 0.00 | 0.00 | 0.00 | 86 | 1009.2 |
| 20260508074556 | 41 | 0 | 0.0 | 0.0 | 0.00 | 0.00 | 0.00 | 86 | 1009.2 |
| 20260508074057 | 41 | 0 | 0.0 | 0.0 | 0.00 | 0.00 | 0.00 | 86 | 1009.3 |
| 20260508073555 | 41 | 0 | 0.0 | 0.0 | 0.00 | 0.00 | 0.00 | 85 | 1009.3 |
| 20260508073057 | 42 | 0 | 0.0 | 0.9 | 0.00 | 0.00 | 0.00 | 85 | 1009.3 |
| 20260508072554 | 42 | 0 | 0.0 | 1.7 | 0.00 | 0.00 | 0.00 | 85 | 1009.3 |
| 20260508072054 | 42 | 0 | 0.0 | 1.7 | 0.00 | 0.00 | 0.00 | 84 | 1009.3 |
| 20260508071602 | 42 | 234 | 0.0 | 1.7 | 0.00 | 0.00 | 0.00 | 84 | 1009.3 |
| 20260508071054 | 42 | 0 | 0.0 | 1.7 | 0.00 | 0.00 | 0.00 | 84 | 1009.4 |
| 20260508070558 | 42 | 0 | 0.0 | 1.7 | 0.00 | 0.00 | 0.00 | 84 | 1009.4 |
| 20260508070140 | 41 | 0 | 0.0 | 0.9 | 0.00 | 0.00 | 0.00 | 84 | 1009.4 |
| 20260508065557 | 42 | 0 | 0.0 | 0.9 | 0.00 | 0.00 | 0.00 | 84 | 1009.3 |
| 20260508065056 | 42 | 0 | 0.0 | 1.7 | 0.00 | 0.00 | 0.00 | 84 | 1009.4 |
| 20260508064608 | 42 | 0 | 0.0 | 1.7 | 0.00 | 0.00 | 0.00 | 84 | 1009.4 |
| 20260508064057 | 41 | 234 | 0.0 | 1.7 | 0.00 | 0.00 | 0.00 | 84 | 1009.5 |
| 20260508063555 | 41 | 0 | 0.0 | 1.7 | 0.00 | 0.00 | 0.00 | 84 | 1009.6 |
| 20260508063058 | 41 | 0 | 0.0 | 0.0 | 0.00 | 0.00 | 0.00 | 84 | 1009.6 |
| 20260508062555 | 41 | 0 | 0.0 | 0.0 | 0.00 | 0.00 | 0.00 | 83 | 1009.5 |
| 20260508062055 | 41 | 0 | 0.0 | 0.0 | 0.00 | 0.00 | 0.00 | 82 | 1009.6 |
| 20260508061603 | 41 | 0 | 0.0 | 0.0 | 0.00 | 0.00 | 0.00 | 82 | 1009.4 |
| 20260508061057 | 41 | 0 | 0.0 | 0.0 | 0.00 | 0.00 | 0.00 | 82 | 1009.4 |
| 20260508060554 | 41 | 0 | 0.0 | 0.0 | 0.00 | 0.00 | 0.00 | 82 | 1009.4 |
| 20260508060057 | 42 | 0 | 0.0 | 0.0 | 0.00 | 0.00 | 0.00 | 81 | 1009.5 |
| 20260508055557 | 42 | 0 | 0.0 | 0.0 | 0.00 | 0.00 | 0.00 | 81 | 1009.4 |
| 20260508055057 | 42 | 0 | 0.0 | 0.0 | 0.00 | 0.00 | 0.00 | 80 | 1009.4 |
| 20260508054554 | 43 | 0 | 0.0 | 0.9 | 0.00 | 0.00 | 0.00 | 80 | 1009.5 |
| 20260508054056 | 43 | 0 | 0.0 | 0.9 | 0.00 | 0.00 | 0.00 | 80 | 1009.6 |
| 20260508053557 | 44 | 234 | 0.0 | 1.7 | 0.00 | 0.00 | 0.00 | 79 | 1009.5 |
| 20260508053104 | 44 | 0 | 0.0 | 1.7 | 0.00 | 0.00 | 0.00 | 79 | 1009.6 |
| 20260508052557 | 43 | 0 | 0.0 | 2.6 | 0.00 | 0.00 | 0.00 | 79 | 1009.7 |
| 20260508052055 | 44 | 0 | 0.0 | 2.6 | 0.00 | 0.00 | 0.00 | 78 | 1009.6 |
| 20260508051558 | 43 | 0 | 0.0 | 2.6 | 0.00 | 0.00 | 0.00 | 79 | 1009.6 |
| 20260508051057 | 43 | 0 | 0.0 | 0.0 | 0.00 | 0.00 | 0.00 | 79 | 1009.7 |
| 20260508050555 | 43 | 0 | 0.0 | 0.0 | 0.00 | 0.00 | 0.00 | 79 | 1009.6 |
| 20260508050100 | 43 | 0 | 0.0 | 0.0 | 0.00 | 0.00 | 0.00 | 79 | 1009.6 |
| 20260508045556 | 43 | 0 | 0.0 | 0.0 | 0.00 | 0.00 | 0.00 | 78 | 1009.6 |
| 20260508045055 | 44 | 0 | 0.0 | 0.0 | 0.00 | 0.00 | 0.00 | 78 | 1009.5 |
| 20260508044557 | 44 | 0 | 0.0 | 0.0 | 0.00 | 0.00 | 0.00 | 77 | 1009.6 |
| 20260508044058 | 44 | 0 | 0.0 | 0.0 | 0.00 | 0.00 | 0.00 | 78 | 1009.6 |
| 20260508043556 | 44 | 0 | 0.0 | 0.0 | 0.00 | 0.00 | 0.00 | 78 | 1009.5 |
| 20260508043104 | 44 | 0 | 0.0 | 0.0 | 0.00 | 0.00 | 0.00 | 78 | 1009.5 |
| 20260508042557 | 44 | 0 | 0.0 | 0.9 | 0.00 | 0.00 | 0.00 | 77 | 1009.5 |
| 20260508042057 | 44 | 0 | 0.0 | 1.7 | 0.00 | 0.00 | 0.00 | 77 | 1009.6 |
| 20260508041557 | 45 | 0 | 0.0 | 2.6 | 0.00 | 0.00 | 0.00 | 77 | 1009.6 |
| 20260508041057 | 45 | 0 | 0.0 | 2.6 | 0.00 | 0.00 | 0.00 | 76 | 1009.5 |
| 20260508040555 | 45 | 137 | 0.0 | 2.6 | 0.00 | 0.00 | 0.00 | 77 | 1009.5 |
| 20260508040100 | 45 | 0 | 0.0 | 2.6 | 0.00 | 0.00 | 0.00 | 76 | 1009.5 |
| 20260508035557 | 46 | 0 | 0.9 | 3.5 | 0.00 | 0.00 | 0.00 | 76 | 1009.5 |
| 20260508035055 | 46 | 0 | 0.9 | 3.5 | 0.00 | 0.00 | 0.00 | 76 | 1009.6 |
| 20260508034556 | 46 | 0 | 0.0 | 3.5 | 0.00 | 0.00 | 0.00 | 75 | 1009.6 |
| 20260508034053 | 46 | 163 | 0.0 | 3.5 | 0.00 | 0.00 | 0.00 | 75 | 1009.6 |
| 20260508033553 | 47 | 167 | 0.9 | 3.5 | 0.00 | 0.00 | 0.00 | 74 | 1009.6 |
| 20260508033054 | 47 | 202 | 1.7 | 3.5 | 0.00 | 0.00 | 0.00 | 74 | 1009.6 |
| 20260508032554 | 47 | 134 | 0.9 | 3.5 | 0.00 | 0.00 | 0.00 | 73 | 1009.7 |
| 20260508032059 | 47 | 0 | 0.9 | 3.5 | 0.00 | 0.00 | 0.00 | 73 | 1009.8 |
| 20260508031558 | 47 | 191 | 0.9 | 2.6 | 0.00 | 0.00 | 0.00 | 73 | 1009.8 |
| 20260508031101 | 47 | 203 | 0.0 | 2.6 | 0.00 | 0.00 | 0.00 | 73 | 1009.8 |
| 20260508030557 | 47 | 203 | 0.0 | 2.6 | 0.00 | 0.00 | 0.00 | 74 | 1009.8 |
| 20260508025554 | 47 | 0 | 0.0 | 4.3 | 0.00 | 0.00 | 0.00 | 73 | 1009.7 |
| 20260508025055 | 47 | 203 | 0.0 | 4.3 | 0.00 | 0.00 | 0.00 | 73 | 1009.9 |
| 20260508024601 | 47 | 0 | 0.0 | 1.7 | 0.00 | 0.00 | 0.00 | 73 | 1010.0 |
| 20260508024058 | 47 | 173 | 0.0 | 4.3 | 0.00 | 0.00 | 0.00 | 74 | 1010.0 |
| 20260508023555 | 47 | 0 | 0.9 | 4.3 | 0.00 | 0.00 | 0.00 | 75 | 1010.1 |
| 20260508023055 | 47 | 0 | 0.0 | 1.7 | 0.00 | 0.00 | 0.00 | 75 | 1009.9 |
| 20260508022556 | 47 | 0 | 0.0 | 1.7 | 0.00 | 0.00 | 0.00 | 75 | 1009.8 |
| 20260508022055 | 48 | 0 | 0.0 | 2.6 | 0.00 | 0.00 | 0.00 | 73 | 1009.9 |
| 20260508021559 | 48 | 0 | 0.0 | 2.6 | 0.00 | 0.00 | 0.00 | 73 | 1009.8 |
| 20260508021059 | 48 | 245 | 0.0 | 2.6 | 0.00 | 0.00 | 0.00 | 72 | 1009.8 |
| 20260508020602 | 48 | 0 | 0.0 | 2.6 | 0.00 | 0.00 | 0.00 | 71 | 1009.8 |
| 20260508020100 | 49 | 0 | 0.0 | 6.1 | 0.00 | 0.00 | 0.00 | 69 | 1009.7 |
| 20260508015558 | 49 | 304 | 1.7 | 6.1 | 0.00 | 0.00 | 0.00 | 69 | 1009.7 |
| 20260508015059 | 50 | 55 | 1.7 | 6.1 | 0.00 | 0.00 | 0.00 | 66 | 1009.8 |
| 20260508014556 | 51 | 0 | 1.7 | 6.1 | 0.00 | 0.00 | 0.00 | 64 | 1009.9 |
| 20260508014057 | 50 | 163 | 2.6 | 6.1 | 0.00 | 0.00 | 0.00 | 62 | 1009.8 |
| 20260508013556 | 50 | 0 | 0.9 | 1.7 | 0.00 | 0.00 | 0.00 | 62 | 1009.8 |
| 20260508013104 | 50 | 0 | 0.0 | 1.7 | 0.00 | 0.00 | 0.00 | 64 | 1009.7 |
| 20260508012557 | 50 | 0 | 0.0 | 1.7 | 0.00 | 0.00 | 0.00 | 67 | 1009.5 |
| 20260508012057 | 50 | 242 | 0.0 | 1.7 | 0.00 | 0.00 | 0.00 | 67 | 1009.3 |
| 20260508011557 | 50 | 0 | 0.0 | 3.5 | 0.00 | 0.00 | 0.00 | 62 | 1009.2 |
| 20260508011054 | 50 | 334 | 0.9 | 4.3 | 0.00 | 0.00 | 0.00 | 62 | 1009.0 |
| 20260508010557 | 50 | 5 | 1.7 | 4.3 | 0.00 | 0.00 | 0.00 | 62 | 1009.0 |
| 20260508010058 | 51 | 350 | 2.6 | 4.3 | 0.00 | 0.00 | 0.00 | 63 | 1009.0 |
| 20260508005556 | 51 | 313 | 0.0 | 3.5 | 0.00 | 0.00 | 0.00 | 56 | 1009.2 |
| 20260508005055 | 51 | 0 | 0.0 | 1.7 | 0.00 | 0.00 | 0.00 | 56 | 1009.1 |
| 20260508004600 | 51 | 0 | 0.0 | 2.6 | 0.00 | 0.00 | 0.00 | 62 | 1009.0 |
| 20260508004058 | 51 | 0 | 0.9 | 2.6 | 0.00 | 0.00 | 0.00 | 58 | 1008.9 |
| 20260508003553 | 51 | 335 | 0.0 | 1.7 | 0.00 | 0.00 | 0.00 | 57 | 1008.9 |
| 20260508003055 | 51 | 0 | 0.0 | 0.0 | 0.00 | 0.00 | 0.00 | 54 | 1008.9 |
| 20260508002557 | 51 | 0 | 0.0 | 0.0 | 0.00 | 0.00 | 0.00 | 57 | 1008.8 |
| 20260508002057 | 51 | 0 | 0.0 | 0.0 | 0.00 | 0.00 | 0.00 | 54 | 1008.8 |
| 20260508001556 | 51 | 0 | 0.0 | 0.0 | 0.00 | 0.00 | 0.00 | 56 | 1008.7 |
| 20260508001057 | 51 | 0 | 0.0 | 0.0 | 0.00 | 0.00 | 0.00 | 60 | 1008.8 |
| 20260508000558 | 51 | 0 | 0.0 | 0.9 | 0.00 | 0.00 | 0.00 | 59 | 1008.8 |
| 20260508000057 | 51 | 0 | 0.0 | 0.9 | 0.00 | 0.00 | 0.00 | 55 | 1008.9 |
| 20260507235557 | 51 | 335 | 0.0 | 1.7 | 0.00 | 0.00 | 0.00 | 57 | 1008.9 |
| 20260507235057 | 51 | 0 | 0.0 | 1.7 | 0.00 | 0.00 | 0.00 | 56 | 1008.9 |
| 20260507234555 | 52 | 335 | 0.0 | 2.6 | 0.00 | 0.00 | 0.00 | 53 | 1008.9 |
| 20260507234057 | 52 | 0 | 0.0 | 3.5 | 0.00 | 0.00 | 0.00 | 53 | 1008.8 |
| 20260507233557 | 52 | 335 | 0.9 | 4.3 | 0.00 | 0.00 | 0.00 | 51 | 1008.8 |
| 20260507233055 | 53 | 0 | 0.9 | 5.2 | 0.00 | 0.00 | 0.00 | 50 | 1008.9 |
| 20260507232600 | 53 | 296 | 1.7 | 5.2 | 0.00 | 0.00 | 0.00 | 49 | 1008.8 |
| 20260507232058 | 54 | 331 | 0.9 | 5.2 | 0.00 | 0.00 | 0.00 | 47 | 1008.9 |
| 20260507231555 | 54 | 245 | 1.7 | 7.0 | 0.00 | 0.00 | 0.00 | 47 | 1008.9 |